Regional Weather Roundup
Issued by NWS

Home | Current Version | Previous Version | Text Only | Print | Product List | Glossary Off
Versions: 1 2 3 4 5 6 7 8 9 10 11 12 13 14 15 16 17 18 19 20 21 22 23 24 25 26 27 28 29 30 31 32 33 34 35 36 37 38 39 40 41 42 43 44 45 46 47 48 49 50

000
ASUS43 KOAX 011402
RWRNE

WEATHER ROUNDUP FOR NEBRASKA
NATIONAL WEATHER SERVICE OMAHA NE
900 AM CDT MON SEP 01 2014

NOTES: SATELLITE DATA IS BEING USED TO AUGMENT CLOUD COVER ABOVE
       12000 FEET.
       "FAIR" INDICATES FEW OR NO CLOUDS BELOW 12,000 FEET WITH NO
       SIGNIFICANT WEATHER AND/OR OBSTRUCTIONS TO VISIBILITY.

  * THESE STATIONS DO NOT REPORT WEATHER SUCH AS RAIN...SNOW OR FOG.

NEZ001>004-019>022-054>056-011500-
NEBRASKA PANHANDLE

CITY           SKY/WX    TMP DP  RH WIND       PRES   REMARKS
SCOTTSBLUFF    MOSUNNY   53  50  89 CALM      30.01S
ALLIANCE       CLOUDY    54  50  86 W7        29.99S
CHADRON        SUNNY     53  50  89 W7        29.96R
KIMBALL        MOSUNNY   52  48  86 W6        30.04S
SIDNEY         MOSUNNY   56  48  74 W8        30.04R
$$

NEZ057>060-069>072-079>082-011500-
SOUTHWEST NEBRASKA

CITY           SKY/WX    TMP DP  RH WIND       PRES   REMARKS
NORTH PLATTE   SUNNY     57  52  83 W6        29.96S
IMPERIAL       PTSUNNY   56  50  80 W6        30.00R
LEXINGTON      SUNNY     57  55  91 W3        29.94F
MCCOOK         MOSUNNY   59  54  83 SW6       29.97R
OGALLALA       SUNNY     55  51  87 W5        30.00R
$$

NEZ005>010-023>029-035>040-094-011500-
NORTH CENTRAL NEBRASKA

CITY           SKY/WX    TMP DP  RH WIND       PRES   REMARKS
VALENTINE      PTSUNNY   57  54  89 W9        29.92R
AINSWORTH      MOSUNNY   58  53  84 W8        29.91S
BROKEN BOW     SUNNY     62  53  72 VRB3      29.92R
O`NEILL        SUNNY     60  56  88 W8        29.88R
ORD            SUNNY     60  55  83 NW8       29.88S
THEDFORD       SUNNY     58  55  90 W7        29.95S
$$

NEZ041-046>049-061>064-073>077-083>087-011500-
SOUTH CENTRAL NEBRASKA

CITY           SKY/WX    TMP DP  RH WIND       PRES   REMARKS
GRAND ISLAND   SUNNY     62  56  80 W10       29.90R
AURORA         MOSUNNY   61  58  91 NW7       29.89R
HASTINGS       MOSUNNY   62  54  74 NW12      29.90R
HEBRON         MOSUNNY   63  57  80 NW6       29.91R
HOLDREGE       MOSUNNY   58  54  87 CALM      29.93S
KEARNEY *      MOSUNNY   59  54  82 W10       29.93S
$$

NEZ011>018-030>034-042>045-011500-
NORTHEAST NEBRASKA

CITY           SKY/WX    TMP DP  RH WIND       PRES   REMARKS
NORFOLK        SUNNY     62  58  86 W9        29.84R
ALBION         SUNNY     61  56  83 NW8       29.86S
BLAIR          SUNNY     65  62  88 W5        29.82R
FREMONT        MOSUNNY   65  62  89 W6        29.84R
TEKAMAH        SUNNY     67  62  84 W10       29.81R
WAYNE          PTSUNNY   63  61  91 NW7       29.83R
$$

NEZ050>053-065>068-078-088>093-011500-
SOUTHEAST NEBRASKA

CITY           SKY/WX    TMP DP  RH WIND       PRES   REMARKS
LINCOLN        SUNNY     67  61  81 W6        29.87R
OMAHA EPPLEY   MOSUNNY   69  61  75 NW9       29.82R
BEATRICE       SUNNY     66  61  82 W8        29.87R
FALLS CITY     PTSUNNY   70  65  84 W10       29.84R
NEBRASKA CITY  MOSUNNY   67  65  91 W13       29.84R
PLATTSMOUTH    PTSUNNY   67  63  86 W8        29.83R
$$

NEZ044-045-051>053-067-011500-
OMAHA AREA

CITY           SKY/WX    TMP DP  RH WIND       PRES   REMARKS
OMAHA EPPLEY   MOSUNNY   69  61  75 NW9       29.82R
BLAIR          SUNNY     65  62  88 W5        29.82R
FREMONT        MOSUNNY   65  62  89 W6        29.84R
MILLARD        MOSUNNY   67  61  83 W7        29.83R
OFFUTT AFB     SUNNY     69  67  94 NW9       29.82R
PLATTSMOUTH    PTSUNNY   67  63  86 W8        29.83R
WAHOO          FAIR      66  61  82 W5        29.84R
$$


USA.gov is the U.S. government's official web portal to all federal, state and local government web resources and services.